Location: *
(45.0077°S, 177.5720°W)
Time: 09:15:51
(UTC+00:00)

Daily predictions for brighter satellites

Satellite Brightness Start Highest point End
(mag) Time Altitude Azimuth Time Altitude Azimuth Time Altitude Azimuth
Cosmos 2208 Rocket 4.1 12:01:11 10° SSW 12:06:36 76° ESE 12:08:08 48° NE
Meteor 2-5 Rocket 3.7 12:06:40 10° S 12:12:32 81° E 12:14:11 48° NNE
Cosmos 1674 Rocket 3.8 12:09:31 10° S 12:14:01 61° E 12:14:39 54° ENE
ADEOS II 3.5 12:12:08 18° ENE 12:15:22 33° ESE 12:20:05 10° S
Cosmos 1697 Rocket 2.7 12:11:41 10° SSW 12:17:22 65° WNW 12:18:30 53° NNW
Spot 4 3.9 12:13:13 10° S 12:18:06 75° WSW 12:18:58 58° NW
Cosmos 1908 3.4 12:20:56 62° SW 12:20:56 62° SW 12:24:28 10° S
Cosmos 1703 3.6 12:20:11 10° S 12:24:02 55° ESE 12:24:12 55° E
USA 81 4.0 12:25:49 55° NNW 12:27:00 80° W 12:32:22 10° S
Resurs 1-4 Rocket 2.3 12:26:23 39° NE 12:28:21 68° ESE 12:33:39 10° S
IDEFIX/ARIANE 42P 2.8 12:26:51 38° NE 12:28:49 66° ESE 12:34:06 10° S
Cosmos 1821 Rocket 4.2 12:22:58 10° SSW 12:29:10 61° W 12:31:07 43° NNW
GP-B 3.9 12:25:24 10° SSW 12:29:36 39° W 12:30:02 38° W
Cosmos 1470 4.2 12:29:47 27° WSW 12:29:55 27° WSW 12:33:20 10° SSW
ARGOS Delta rocket 3.5 12:25:19 10° S 12:29:56 82° WSW 12:30:32 66° NNW
Cosmos 1570 Rocket 4.2 12:26:19 10° SSW 12:31:28 51° WNW 12:32:09 48° NW
ATLAS 3B R/B 2.9 12:29:34 10° SSW 12:35:53 62° SE 12:42:07 10° NE
Meteor 1-22 Rocket 4.3 12:35:05 46° NW 12:36:26 61° WSW 12:41:45 10° S
Cosmos 836 Rocket 4.4 12:32:43 10° SSW 12:38:07 83° WNW 12:39:37 49° N
SL-16 R/B 4.1 12:34:01 10° S 12:38:55 28° SE 12:43:45 10° ENE
CZ-2D R/B 2.2 12:39:10 40° NNE 12:41:15 83° ESE 12:46:51 10° SSW
COSMOS 2406 3.2 12:41:45 47° N 12:43:27 76° ENE 12:49:16 10° SSE
Lacrosse 5 rocket 3.0 12:40:23 10° SSW 12:43:39 29° SSE 12:46:56 10° E
Cosmos 1825 4.4 12:43:00 10° SSE 12:45:39 19° ESE 12:47:25 14° ENE
Cosmos 1980 Rocket 2.1 12:40:55 10° SSW 12:46:38 78° WNW 12:48:42 41° NNE
ATLAS CENTAUR R/B 3.1 12:43:55 10° SSW 12:48:03 35° SE 12:52:06 10° ENE
Cosmos 2369 3.6 12:43:21 10° SSW 12:49:06 87° WNW 12:51:33 36° NNE
Cosmos 1340 2.4 12:49:31 84° S 12:49:31 84° S 12:53:03 10° S
Cosmos 1378 Rocket 4.0 12:48:25 10° SSW 12:52:38 45° W 12:52:54 45° WNW
Cosmos 1908 Rocket 3.5 12:52:20 60° N 12:53:09 90° SSW 12:57:42 10° S
Cosmos 44 Rocket 3.7 12:53:58 41° NE 12:54:43 45° ENE 12:59:10 10° SE
Cosmos 1733 Rocket 4.3 12:54:41 28° W 12:55:24 29° WSW 12:59:18 10° SSW
USA 306 3.3 12:57:19 37° E 12:57:19 37° E 12:59:59 10° ESE
Cosmos 1300 2.5 12:57:13 79° WNW 12:57:20 81° W 13:01:06 10° S
Cosmos 1455 4.1 12:58:47 18° ENE 12:59:57 21° E 13:02:48 10° SE
Cosmos 1833 Rocket 4.2 12:58:36 17° W 13:01:54 28° SW 13:06:46 10° S
COSMOS 2441 4.5 13:00:41 34° NNE 13:02:49 74° ESE 13:07:44 10° S
Cosmos 1408 2.8 13:01:49 10° SSW 13:04:36 51° SW 13:04:36 51° SW
Meteor 2-10 Rocket 3.8 13:03:32 41° NNW 13:05:37 75° WSW 13:11:32 10° S
FENGYUN 3A 4.2 13:02:07 20° NE 13:05:49 57° ESE 13:11:10 10° S
ATLAS 2AS CENTAUR R/B 3.3 13:02:09 21° WNW 13:06:31 49° SW 13:13:18 10° SSE
Cosmos 158 Rocket 3.9 13:01:55 10° SSW 13:06:47 60° WNW 13:07:53 47° NNW
Cosmos 2221 Rocket 4.4 13:02:38 10° SSW 13:06:50 36° W 13:07:18 35° WNW
ISS -2.7 13:17:10 35° ENE 13:17:10 35° ENE 13:19:53 10° ESE
Cosmos 1633 2.3 13:15:39 10° SSW 13:18:24 65° SW 13:18:24 65° SW
NPP 4.3 13:22:23 34° NW 13:23:47 40° W 13:28:55 10° SSW
Cosmos 2278 3.8 13:19:23 10° SSW 13:25:09 81° ESE 13:30:16 13° NNE
Cosmos 2082 Rocket 2.7 13:22:45 29° WNW 13:25:26 51° WSW 13:31:03 10° SSE
Helios 1A Rocket 3.4 13:24:51 10° S 13:28:40 44° WSW 13:29:33 37° WNW
Cosmos 1300 Rocket 3.6 13:27:30 40° N 13:29:06 84° E 13:33:39 10° S
Cosmos 2098 Rocket 3.5 13:30:36 27° WSW 13:30:36 27° WSW 13:33:04 10° SSW
CZ-2C R/B 4.3 13:28:06 10° NE 13:32:36 31° ESE 13:37:03 10° S
CZ-2C R/B 3.6 13:28:17 14° NNE 13:33:03 66° ESE 13:38:50 10° S
USA 229 DEB 4.4 13:27:05 10° SSW 13:33:42 51° SE 13:39:44 10° ENE
USA 229 4.5 13:27:09 10° SSW 13:33:45 50° SE 13:39:47 10° ENE
USA 308 3.8 13:33:48 18° SW 13:34:21 20° SSW 13:36:23 10° SSE
Cosmos 1777 Rocket 4.2 13:36:00 33° NW 13:38:17 63° WSW 13:43:32 10° SSE
Cosmos 1025 Rocket 3.4 13:34:31 10° SSW 13:38:50 49° W 13:40:05 37° NW
ALOS 2.5 13:36:57 19° NNE 13:40:18 72° ESE 13:45:01 10° S
SJ 16-02 4.0 13:42:29 10° SW 13:42:48 10° SW 13:43:07 10° SW
Cosmos 1867 3.9 13:38:36 10° SW 13:43:44 44° WNW 13:46:02 28° N
Cosmos 2360 Rocket 3.5 13:38:48 10° SSW 13:44:11 40° SE 13:49:31 10° NE
USA 215 4.3 13:44:50 23° NW 13:44:53 23° WNW 13:49:56 10° WSW
NOSS 3-1 (A) 3.2 13:39:44 10° SW 13:46:08 70° WNW 13:51:21 10° NNE
NOSS 3-1 (C) 3.8 13:41:05 10° SW 13:46:36 34° WNW 13:48:04 29° NW
Genesis I 3.3 13:43:09 10° SW 13:46:45 46° WNW 13:47:08 44° NW
Cosmos 1727 Rocket 4.1 13:42:51 23° N 13:46:57 79° E 13:53:17 10° S
Cosmos 1953 2.8 13:46:52 35° WNW 13:47:56 44° WSW 13:51:47 10° S
CZ-4 R/B 3.7 13:46:43 23° N 13:49:44 83° WNW 13:54:28 10° SSW
Thor Agena Rocket 3.6 13:47:55 15° NNE 13:52:16 84° ESE 13:57:32 10° SSW
Sich 1 Rocket 4.5 13:50:48 17° NNE 13:54:03 47° E 13:58:32 10° SSE
ADEOS II 2.8 13:53:01 27° NW 13:54:55 36° W 13:59:49 10° SSW
Cosmos 304 Rocket 3.8 13:55:33 27° NNW 13:58:09 80° ENE 14:03:03 10° SSE
USA 281 4.0 13:52:03 10° NE 13:58:24 54° ESE 14:04:50 10° SSW
USA 305 1.8 13:58:56 52° SE 13:58:56 52° SE 14:00:32 10° SE
Cosmos 1605 Rocket 4.4 13:53:53 10° SSW 13:59:41 45° W 14:03:04 24° NNW
Cosmos 1328 4.2 13:56:59 10° SSW 14:00:44 43° W 14:02:00 32° NW
Cosmos 1315 Rocket 3.7 13:57:10 10° SSW 14:00:46 31° W 14:01:41 28° WNW
Cosmos 2322 Rocket 2.5 13:55:26 10° SSW 14:01:07 70° ESE 14:06:43 10° NNE
USA 307 1.6 14:04:20 54° WSW 14:04:32 57° SSW 14:06:47 10° SE
Meteor 1-21 Rocket 4.5 13:59:49 10° SSW 14:05:16 50° W 14:08:38 22° NNW
Meteor 1-4 Rocket 2.1 14:05:11 10° SSW 14:08:27 82° W 14:10:05 27° N
Resurs 1-4 Rocket 3.7 14:07:27 16° WNW 14:08:38 17° W 14:12:06 10° SW
IDEFIX/ARIANE 42P 4.2 14:07:36 16° WNW 14:08:49 18° W 14:12:20 10° SW
Cosmos 2333 Rocket 3.2 14:03:22 10° SSW 14:08:55 50° ESE 14:14:25 10° NE
Cosmos 2173 Rocket 4.1 14:02:50 10° S 14:09:03 80° E 14:15:11 10° N
Cosmos 1892 3.7 14:08:56 10° SSW 14:12:03 26° W 14:12:47 24° WNW
Okean 2 Rocket 3.2 14:13:02 18° N 14:16:21 76° E 14:20:52 10° SSE
Envisat 3.4 14:11:22 10° NNE 14:16:25 66° ESE 14:21:33 10° S
Geosat 4.1 14:11:51 10° NNE 14:16:53 81° ESE 14:21:59 10° SSW
Cosmos 371 Rocket 3.7 14:15:44 22° NW 14:18:39 52° WSW 14:23:30 10° SSE
Cosmos 2100 Rocket 4.0 14:13:43 10° S 14:19:58 82° W 14:26:10 10° N
Cosmos 1825 3.1 14:17:13 10° SSW 14:20:20 28° W 14:21:22 24° WNW
Cosmos 1802 Rocket 4.3 14:13:53 10° S 14:20:21 74° E 14:26:40 10° NNE
CZ-2D R/B 3.9 14:20:28 13° WNW 14:21:56 15° W 14:24:56 10° SW
Lacrosse 5 rocket 1.3 14:18:47 10° WSW 14:22:17 44° NW 14:25:53 10° NNE
SL-16 R/B 2.3 14:17:45 10° SW 14:23:20 54° WNW 14:28:50 10° N
Cosmos 990 Rocket 4.1 14:20:14 21° NNW 14:23:46 70° WSW 14:29:04 10° SSE
Cosmos 1975 Rocket 4.2 14:20:13 10° SSW 14:23:52 26° W 14:25:39 20° NW
Cosmos 1898 Rocket 3.8 14:21:01 15° N 14:25:20 64° ENE 14:30:38 10° SSE
ATLAS 3B R/B 3.4 14:20:53 10° WSW 14:26:02 27° WNW 14:29:50 15° NNW
ATLAS CENTAUR R/B 2.2 14:22:05 10° SW 14:26:05 32° WNW 14:28:57 16° N
METEOR-M 4.1 14:21:18 10° N 14:26:40 80° WNW 14:32:07 10° SSW
YAOGAN 6 3.2 14:25:20 10° NNE 14:28:36 51° ESE 14:31:56 10° S
Cosmos 1980 Rocket 4.1 14:28:01 10° WSW 14:29:38 11° W 14:30:25 11° WNW
USA 306 3.8 14:29:08 11° W 14:32:07 34° SSW 14:35:34 10° SE
Cosmos 1455 3.4 14:32:57 18° WNW 14:34:40 26° WSW 14:37:49 10° SSW
IRS-1D 3.6 14:29:50 10° N 14:35:05 68° WNW 14:40:29 10° SSW
Cosmos 1937 Rocket 4.0 14:31:06 11° N 14:35:58 57° ENE 14:41:04 10° SSE
Okean 1 Rocket 3.4 14:31:38 10° N 14:36:02 71° E 14:40:33 10° SSE
Cosmos 1725 Rocket 4.2 14:31:52 10° S 14:38:20 81° E 14:44:41 10° N
Cosmos 1680 Rocket 4.1 14:36:05 10° SSW 14:41:26 63° ESE 14:46:43 10° NNE
Cosmos 1536 Rocket 3.7 14:38:27 10° SSW 14:42:58 61° W 14:47:23 10° N
Cosmos 1242 Rocket 2.9 14:41:10 10° S 14:44:26 57° ESE 14:47:40 10° NNE
Cosmos 2333 4.4 14:40:06 10° SSW 14:45:48 79° ESE 14:51:28 10° NNE
SL-8 R/B 4.1 14:43:07 16° NW 14:46:50 54° NNE 14:51:34 10° ESE
COBE Rocket 3.9 14:45:01 10° N 14:49:35 55° W 14:54:15 10° SSW
MOZ.5/SAFIR/RUBIN 5/SL-8 4.3 14:48:30 10° S 14:53:01 44° WSW 14:57:00 12° NW
ISS -2.7 14:50:07 10° W 14:53:25 43° SSW 14:56:43 10° SE
Cosmos 2151 Rocket 4.2 14:50:57 14° NW 14:54:37 43° WSW 14:59:00 10° S
Cosmos 372 Rocket 4.0 14:52:33 10° NNW 14:57:40 90° E 15:02:51 10° SSE
Cosmos 2084 4.3 14:54:55 10° NNW 14:59:17 50° ENE 15:03:53 10° SE
SL-16 R/B 3.3 14:55:48 10° SSE 15:01:54 53° E 15:07:55 10° N
Cosmos 1441 Rocket 3.7 15:00:29 12° NNW 15:03:58 45° WSW 15:07:45 10° S
IRIDIUM 104 4.4 14:59:37 10° S 15:04:55 71° W 15:10:08 10° N
Cosmos 1346 Rocket 2.8 15:01:06 10° N 15:04:59 80° E 15:08:56 10° SSE
BREEZE-M DEB (TANK) 1.9 15:04:09 10° W 15:05:47 82° NNW 15:11:08 10° ENE
CZ-2C R/B 3.1 15:05:48 10° NNW 15:10:36 38° W 15:15:25 10° SSW
H-2A R/B 4.2 15:07:33 10° NE 15:10:51 38° ESE 15:14:10 10° S
Tiangong -1.1 15:10:19 11° NW 15:13:02 32° NNE 15:15:55 10° ENE
ALOS 4.2 15:15:49 10° WNW 15:18:04 13° W 15:20:21 10° WSW
Meteor 2-15 4.5 15:14:54 10° SSW 15:21:00 68° W 15:27:03 10° N
Meteor 2-8 Rocket 4.5 15:17:40 10° S 15:23:53 82° W 15:29:59 10° N
USA 229 DEB 4.0 15:18:29 10° SW 15:24:22 36° WNW 15:29:51 10° N
USA 229 4.0 15:18:32 10° SW 15:24:26 36° WNW 15:29:57 10° N
Cosmos 1455 Rocket 3.1 15:20:50 10° N 15:25:13 88° W 15:29:39 10° S
Meteor 1-28 Rocket 3.1 15:21:53 10° S 15:25:35 70° WSW 15:29:12 10° NNW
Cosmos 292 Rocket 3.9 15:21:48 10° NNW 15:26:41 84° ENE 15:31:36 10° SSE
